When you browse on this site, cookies collect data to enhance your experience and personalize the content and advertising you see.
Visit our Privacy Policy to learn more. By continuing to use the site, you agree to this use of cookies and data.
  • en Suisse
  • Liste des pays
  • À 7 jours
  • Température de l'eau
  • Carte satellitaire
  • Carte météo
  • Widgets météo
  • user-avatar
    Se connecter

    Météo par heure à Bad Kreuznach

    Ce jour, 26 Mai, Dimanche

    Heure Température Précipitation Vent Pression Humidité
    00:00 +12°C° 0 mm 1 m/s 750 mmHg 82%
    01:00 +11°C° 0 mm 1 m/s 750 mmHg 84%
    02:00 +11°C° 0 mm 1 m/s 750 mmHg 85%
    03:00 +11°C° 0 mm 1 m/s 750 mmHg 87%
    04:00 +10°C° 0 mm 1 m/s 750 mmHg 88%
    05:00 +12°C° 0 mm 1 m/s 750 mmHg 84%
    06:00 +13°C° 0 mm 1 m/s 750 mmHg 81%
    07:00 +14°C° 0 mm 1 m/s 750 mmHg 77%
    08:00 +16°C° 0 mm 2 m/s 750 mmHg 72%
    09:00 +17°C° 0 mm 2 m/s 750 mmHg 67%
    10:00 +19°C° 0 mm 3 m/s 750 mmHg 62%
    11:00 +20°C° 0 mm 3 m/s 749 mmHg 59%
    12:00 +21°C° 0 mm 3 m/s 749 mmHg 56%
    13:00 +21°C° 0 mm 3 m/s 748 mmHg 53%
    14:00 +22°C° 0 mm 3 m/s 748 mmHg 54%
    15:00 +22°C° 0 mm 3 m/s 748 mmHg 56%
    16:00 +22°C° 0 mm 3 m/s 747 mmHg 57%
    17:00 +21°C° 0.1 mm 3 m/s 747 mmHg 65%
    18:00 +20°C° 0.1 mm 3 m/s 747 mmHg 73%
    19:00 +19°C° 0.1 mm 2 m/s 746 mmHg 81%
    20:00 +18°C° 0 mm 3 m/s 747 mmHg 85%
    21:00 +16°C° 0 mm 3 m/s 747 mmHg 88%
    22:00 +14°C° 0 mm 3 m/s 747 mmHg 92%
    23:00 +14°C° 0 mm 3 m/s 746 mmHg 93%

    Demain, 27 Mai, Lundi

    Heure Température Précipitation Vent Pression Humidité
    00:00 +13°C° 0 mm 3 m/s 746 mmHg 94%
    01:00 +14°C° 0 mm 2 m/s 746 mmHg 95%
    02:00 +14°C° 0 mm 2 m/s 746 mmHg 95%
    03:00 +12°C° 0 mm 3 m/s 745 mmHg 95%
    04:00 +12°C° 0 mm 3 m/s 745 mmHg 96%
    05:00 +13°C° 0 mm 3 m/s 745 mmHg 94%
    06:00 +13°C° 0 mm 3 m/s 745 mmHg 93%
    07:00 +14°C° 0 mm 3 m/s 745 mmHg 92%
    08:00 +14°C° 0.1 mm 3 m/s 745 mmHg 91%
    09:00 +16°C° 0.1 mm 3 m/s 745 mmHg 91%
    10:00 +16°C° 0.1 mm 3 m/s 746 mmHg 91%
    11:00 +16°C° 0.2 mm 2 m/s 745 mmHg 91%
    12:00 +16°C° 0.2 mm 2 m/s 745 mmHg 92%
    13:00 +16°C° 0.2 mm 1 m/s 745 mmHg 92%
    14:00 +16°C° 0.1 mm 2 m/s 745 mmHg 89%
    15:00 +17°C° 0.1 mm 2 m/s 744 mmHg 87%
    16:00 +18°C° 0.1 mm 2 m/s 744 mmHg 84%
    17:00 +17°C° 0.3 mm 2 m/s 744 mmHg 85%
    18:00 +17°C° 0.3 mm 2 m/s 744 mmHg 86%
    19:00 +16°C° 0.3 mm 1 m/s 744 mmHg 88%
    20:00 +15°C° 0 mm 2 m/s 744 mmHg 88%
    21:00 +14°C° 0 mm 2 m/s 745 mmHg 88%
    22:00 +13°C° 0 mm 2 m/s 745 mmHg 88%
    23:00 +13°C° 0 mm 2 m/s 745 mmHg 88%

    Après-demain, 28 Mai, Mardi

    Heure Température Précipitation Vent Pression Humidité
    00:00 +12°C° 0 mm 2 m/s 745 mmHg 88%
    01:00 +12°C° 0 mm 2 m/s 744 mmHg 88%
    02:00 +10°C° 0 mm 2 m/s 744 mmHg 88%
    03:00 +11°C° 0 mm 1 m/s 744 mmHg 89%
    04:00 +10°C° 0 mm 1 m/s 744 mmHg 89%
    05:00 +11°C° 0 mm 1 m/s 744 mmHg 88%
    06:00 +12°C° 0 mm 2 m/s 744 mmHg 87%
    07:00 +12°C° 0 mm 2 m/s 744 mmHg 86%
    08:00 +13°C° 0 mm 2 m/s 744 mmHg 79%
    09:00 +13°C° 0 mm 3 m/s 744 mmHg 73%
    10:00 +16°C° 0 mm 3 m/s 743 mmHg 67%
    11:00 +16°C° 0.2 mm 3 m/s 743 mmHg 67%
    12:00 +17°C° 0.2 mm 3 m/s 743 mmHg 67%
    13:00 +18°C° 0.2 mm 4 m/s 743 mmHg 67%
    14:00 +17°C° 0.5 mm 4 m/s 743 mmHg 68%
    15:00 +17°C° 0.5 mm 4 m/s 743 mmHg 70%
    16:00 +17°C° 0.5 mm 4 m/s 742 mmHg 72%
    17:00 +16°C° 0.5 mm 3 m/s 743 mmHg 77%
    18:00 +16°C° 0.5 mm 3 m/s 743 mmHg 81%
    19:00 +15°C° 0.5 mm 2 m/s 743 mmHg 86%
    20:00 +14°C° 0.1 mm 2 m/s 743 mmHg 87%
    21:00 +12°C° 0.1 mm 2 m/s 744 mmHg 88%
    22:00 +10°C° 0.1 mm 2 m/s 745 mmHg 90%
    23:00 +9°C° 0 mm 2 m/s 745 mmHg 91%

    29 Mai, Mercredi

    Heure Température Précipitation Vent Pression Humidité
    00:00 +9°C° 0 mm 2 m/s 745 mmHg 92%
    01:00 +8°C° 0 mm 2 m/s 746 mmHg 93%
    02:00 +8°C° 0 mm 2 m/s 746 mmHg 93%
    03:00 +8°C° 0 mm 2 m/s 746 mmHg 94%
    04:00 +8°C° 0 mm 2 m/s 746 mmHg 95%
    05:00 +9°C° 0 mm 3 m/s 747 mmHg 94%
    06:00 +10°C° 0 mm 4 m/s 747 mmHg 92%
    07:00 +11°C° 0 mm 4 m/s 748 mmHg 91%
    08:00 +11°C° 0 mm 4 m/s 748 mmHg 88%
    09:00 +12°C° 0 mm 4 m/s 749 mmHg 84%
    10:00 +13°C° 0 mm 4 m/s 749 mmHg 81%
    11:00 +13°C° 0.1 mm 3 m/s 749 mmHg 77%
    12:00 +14°C° 0.1 mm 3 m/s 750 mmHg 73%
    13:00 +16°C° 0.1 mm 3 m/s 750 mmHg 69%
    14:00 +17°C° 0.1 mm 3 m/s 750 mmHg 67%
    15:00 +17°C° 0.1 mm 4 m/s 750 mmHg 66%
    16:00 +17°C° 0.1 mm 4 m/s 750 mmHg 64%
    17:00 +17°C° 0 mm 3 m/s 750 mmHg 67%
    18:00 +16°C° 0 mm 3 m/s 751 mmHg 70%
    19:00 +15°C° 0 mm 2 m/s 751 mmHg 73%
    20:00 +14°C° 0 mm 2 m/s 752 mmHg 77%
    21:00 +12°C° 0 mm 2 m/s 752 mmHg 80%
    22:00 +10°C° 0 mm 1 m/s 753 mmHg 84%
    23:00 +10°C° 0 mm 1 m/s 753 mmHg 85%

    30 Mai, Jeudi

    Heure Température Précipitation Vent Pression Humidité
    00:00 +9°C° 0 mm 1 m/s 753 mmHg 86%
    01:00 +9°C° 0 mm 1 m/s 753 mmHg 87%
    02:00 +8°C° 0 mm 1 m/s 753 mmHg 88%
    03:00 +8°C° 0 mm 1 m/s 754 mmHg 88%
    04:00 +8°C° 0 mm 1 m/s 754 mmHg 89%
    05:00 +9°C° 0 mm 1 m/s 754 mmHg 85%
    06:00 +11°C° 0 mm 1 m/s 754 mmHg 82%
    07:00 +12°C° 0 mm 1 m/s 754 mmHg 78%
    08:00 +14°C° 0.2 mm 2 m/s 754 mmHg 76%
    09:00 +15°C° 0.2 mm 2 m/s 754 mmHg 73%
    10:00 +16°C° 0.2 mm 3 m/s 754 mmHg 70%
    11:00 +17°C° 0.1 mm 3 m/s 754 mmHg 67%
    12:00 +18°C° 0.1 mm 3 m/s 754 mmHg 63%
    13:00 +19°C° 0.1 mm 4 m/s 754 mmHg 60%
    14:00 +19°C° 0.1 mm 4 m/s 754 mmHg 59%
    15:00 +19°C° 0.1 mm 4 m/s 754 mmHg 59%
    16:00 +19°C° 0.1 mm 5 m/s 754 mmHg 59%
    17:00 +18°C° 0 mm 4 m/s 754 mmHg 65%
    18:00 +17°C° 0 mm 4 m/s 754 mmHg 72%
    19:00 +15°C° 0 mm 4 m/s 755 mmHg 78%
    20:00 +14°C° 0 mm 3 m/s 755 mmHg 83%
    21:00 +13°C° 0 mm 3 m/s 755 mmHg 87%
    22:00 +12°C° 0 mm 2 m/s 756 mmHg 92%
    23:00 +12°C° 0 mm 2 m/s 756 mmHg 93%

    31 Mai, Vendredi

    Heure Température Précipitation Vent Pression Humidité
    00:00 +12°C° 0 mm 2 m/s 756 mmHg 94%
    01:00 +12°C° 0 mm 2 m/s 756 mmHg 96%
    02:00 +12°C° 0.1 mm 2 m/s 756 mmHg 96%
    03:00 +12°C° 0.1 mm 2 m/s 756 mmHg 96%
    04:00 +13°C° 0.1 mm 2 m/s 756 mmHg 96%
    05:00 +13°C° 0.1 mm 2 m/s 756 mmHg 95%
    06:00 +14°C° 0.1 mm 2 m/s 756 mmHg 95%
    07:00 +14°C° 0.1 mm 2 m/s 757 mmHg 94%
    08:00 +15°C° 0.1 mm 2 m/s 757 mmHg 92%
    09:00 +16°C° 0.1 mm 3 m/s 757 mmHg 90%
    10:00 +16°C° 0.1 mm 3 m/s 757 mmHg 88%
    11:00 +18°C° 0.1 mm 4 m/s 757 mmHg 84%
    12:00 +19°C° 0.1 mm 4 m/s 757 mmHg 80%
    13:00 +20°C° 0.1 mm 4 m/s 757 mmHg 76%
    14:00 +20°C° 0.1 mm 4 m/s 757 mmHg 74%
    15:00 +21°C° 0.1 mm 4 m/s 757 mmHg 73%
    16:00 +21°C° 0.1 mm 4 m/s 756 mmHg 71%
    17:00 +21°C° 0.1 mm 4 m/s 756 mmHg 74%
    18:00 +20°C° 0.1 mm 4 m/s 757 mmHg 78%
    19:00 +20°C° 0.1 mm 3 m/s 757 mmHg 81%
    20:00 +18°C° 0 mm 3 m/s 757 mmHg 85%
    21:00 +16°C° 0 mm 2 m/s 757 mmHg 89%
    22:00 +15°C° 0 mm 2 m/s 757 mmHg 93%
    23:00 +15°C° 0 mm 2 m/s 758 mmHg 93%
    Voir plus